When you browse on this site, cookies collect data to enhance your experience and personalize the content and advertising you see.
Visit our Privacy Policy to learn more. By continuing to use the site, you agree to this use of cookies and data.
  • In Portugal
  • List of Countries
  • For 7 days
  • Water Temperature
  • Satellite Maps
  • Weather Map
  • Weather Widgets
  • user-avatar
    Login

    Hourly Weather Biatris

    Today, 22 March, Friday

    Time Temperature Precipitation Wind Pressure Humidity
    00:00 +17°C° 0 mm 2 mps 652 mmHg 91%
    01:00 +17°C° 0 mm 2 mps 652 mmHg 93%
    02:00 +17°C° 0 mm 2 mps 652 mmHg 96%
    03:00 +17°C° 0 mm 2 mps 652 mmHg 96%
    04:00 +16°C° 0 mm 2 mps 652 mmHg 96%
    05:00 +16°C° 0 mm 2 mps 652 mmHg 96%
    06:00 +18°C° 0 mm 2 mps 652 mmHg 89%
    07:00 +19°C° 0 mm 3 mps 653 mmHg 81%
    08:00 +21°C° 0 mm 3 mps 654 mmHg 73%
    09:00 +25°C° 0 mm 3 mps 655 mmHg 62%
    10:00 +27°C° 0 mm 3 mps 655 mmHg 50%
    11:00 +30°C° 0 mm 4 mps 656 mmHg 39%
    12:00 +30°C° 0 mm 4 mps 655 mmHg 36%
    13:00 +32°C° 0 mm 4 mps 655 mmHg 33%
    14:00 +32°C° 0 mm 4 mps 654 mmHg 34%
    15:00 +30°C° 0 mm 4 mps 654 mmHg 38%
    16:00 +29°C° 0 mm 5 mps 654 mmHg 42%
    17:00 +28°C° 0 mm 5 mps 654 mmHg 46%
    18:00 +26°C° 0 mm 4 mps 654 mmHg 55%
    19:00 +23°C° 0 mm 4 mps 654 mmHg 65%
    20:00 +20°C° 0 mm 4 mps 654 mmHg 74%
    21:00 +20°C° 0 mm 4 mps 654 mmHg 78%
    22:00 +19°C° 0 mm 4 mps 654 mmHg 81%
    23:00 +18°C° 0 mm 4 mps 655 mmHg 84%

    Tomorrow, 23 March, Saturday

    Time Temperature Precipitation Wind Pressure Humidity
    00:00 +18°C° 0 mm 4 mps 654 mmHg 87%
    01:00 +18°C° 0 mm 3 mps 654 mmHg 91%
    02:00 +17°C° 0 mm 3 mps 654 mmHg 94%
    03:00 +17°C° 0 mm 3 mps 654 mmHg 94%
    04:00 +17°C° 0 mm 3 mps 653 mmHg 95%
    05:00 +17°C° 0 mm 2 mps 653 mmHg 95%
    06:00 +18°C° 0 mm 3 mps 654 mmHg 87%
    07:00 +20°C° 0 mm 4 mps 655 mmHg 79%
    08:00 +21°C° 0 mm 4 mps 656 mmHg 71%
    09:00 +23°C° 0 mm 4 mps 656 mmHg 63%
    10:00 +26°C° 0 mm 4 mps 657 mmHg 55%
    11:00 +28°C° 0 mm 4 mps 657 mmHg 47%
    12:00 +29°C° 0 mm 4 mps 656 mmHg 45%
    13:00 +29°C° 0 mm 4 mps 656 mmHg 44%
    14:00 +30°C° 0 mm 4 mps 655 mmHg 43%
    15:00 +29°C° 0.1 mm 4 mps 655 mmHg 46%
    16:00 +28°C° 0.1 mm 4 mps 654 mmHg 50%
    17:00 +27°C° 0.1 mm 4 mps 654 mmHg 53%
    18:00 +25°C° 0 mm 4 mps 654 mmHg 62%
    19:00 +22°C° 0 mm 3 mps 654 mmHg 70%
    20:00 +20°C° 0 mm 3 mps 654 mmHg 78%
    21:00 +20°C° 0 mm 3 mps 654 mmHg 82%
    22:00 +19°C° 0 mm 3 mps 654 mmHg 85%
    23:00 +19°C° 0 mm 3 mps 654 mmHg 89%

    Day after tomorrow, 24 March, Sunday

    Time Temperature Precipitation Wind Pressure Humidity
    00:00 +18°C° 0 mm 3 mps 654 mmHg 91%
    01:00 +18°C° 0 mm 3 mps 654 mmHg 94%
    02:00 +17°C° 0 mm 2 mps 653 mmHg 96%
    03:00 +17°C° 0 mm 2 mps 653 mmHg 96%
    04:00 +17°C° 0 mm 3 mps 653 mmHg 96%
    05:00 +16°C° 0 mm 3 mps 653 mmHg 96%
    06:00 +18°C° 0 mm 3 mps 654 mmHg 87%
    07:00 +19°C° 0 mm 4 mps 654 mmHg 78%
    08:00 +20°C° 0 mm 4 mps 655 mmHg 69%
    09:00 +23°C° 0 mm 4 mps 655 mmHg 57%
    10:00 +26°C° 0 mm 4 mps 656 mmHg 46%
    11:00 +29°C° 0 mm 4 mps 656 mmHg 34%
    12:00 +30°C° 0 mm 3 mps 656 mmHg 33%
    13:00 +30°C° 0 mm 3 mps 655 mmHg 31%
    14:00 +31°C° 0 mm 3 mps 654 mmHg 29%
    15:00 +30°C° 0 mm 3 mps 654 mmHg 32%
    16:00 +29°C° 0 mm 3 mps 653 mmHg 36%
    17:00 +29°C° 0 mm 3 mps 653 mmHg 39%
    18:00 +26°C° 0 mm 3 mps 653 mmHg 49%
    19:00 +24°C° 0 mm 3 mps 653 mmHg 59%
    20:00 +21°C° 0 mm 4 mps 653 mmHg 69%
    21:00 +20°C° 0 mm 3 mps 653 mmHg 74%
    22:00 +19°C° 0 mm 2 mps 653 mmHg 79%
    23:00 +18°C° 0 mm 2 mps 653 mmHg 84%

    25 March, Monday

    Time Temperature Precipitation Wind Pressure Humidity
    00:00 +19°C° 0 mm 1 mps 653 mmHg 87%
    01:00 +18°C° 0 mm 1 mps 652 mmHg 89%
    02:00 +18°C° 0 mm 1 mps 652 mmHg 92%
    03:00 +18°C° 0 mm 1 mps 652 mmHg 93%
    04:00 +16°C° 0 mm 1 mps 652 mmHg 94%
    05:00 +16°C° 0 mm 1 mps 651 mmHg 94%
    06:00 +19°C° 0 mm 1 mps 652 mmHg 86%
    07:00 +21°C° 0 mm 1 mps 653 mmHg 78%
    08:00 +23°C° 0 mm 1 mps 654 mmHg 70%
    09:00 +25°C° 0 mm 1 mps 655 mmHg 58%
    10:00 +28°C° 0 mm 1 mps 655 mmHg 46%
    11:00 +31°C° 0 mm 2 mps 655 mmHg 35%
    12:00 +32°C° 0 mm 2 mps 655 mmHg 31%
    13:00 +34°C° 0 mm 2 mps 654 mmHg 27%
    14:00 +35°C° 0 mm 2 mps 654 mmHg 23%
    15:00 +34°C° 0 mm 2 mps 653 mmHg 25%
    16:00 +32°C° 0 mm 2 mps 652 mmHg 26%
    17:00 +31°C° 0 mm 3 mps 652 mmHg 28%
    18:00 +28°C° 0 mm 3 mps 652 mmHg 36%
    19:00 +26°C° 0 mm 3 mps 652 mmHg 44%
    20:00 +22°C° 0 mm 3 mps 652 mmHg 52%
    21:00 +21°C° 0 mm 2 mps 652 mmHg 55%
    22:00 +20°C° 0 mm 2 mps 652 mmHg 58%
    23:00 +20°C° 0 mm 2 mps 652 mmHg 60%

    26 March, Tuesday

    Time Temperature Precipitation Wind Pressure Humidity
    00:00 +19°C° 0 mm 2 mps 652 mmHg 65%
    01:00 +20°C° 0 mm 1 mps 652 mmHg 69%
    02:00 +19°C° 0 mm 1 mps 651 mmHg 74%
    03:00 +19°C° 0 mm 1 mps 651 mmHg 79%
    04:00 +18°C° 0 mm 1 mps 651 mmHg 84%
    05:00 +18°C° 0 mm 1 mps 651 mmHg 89%
    06:00 +18°C° 0 mm 0 mps 652 mmHg 81%
    07:00 +21°C° 0 mm 0 mps 653 mmHg 73%
    08:00 +23°C° 0 mm 0 mps 654 mmHg 64%
    09:00 +27°C° 0 mm 1 mps 655 mmHg 53%
    10:00 +30°C° 0 mm 2 mps 655 mmHg 41%
    11:00 +33°C° 0 mm 3 mps 656 mmHg 29%
    12:00 +34°C° 0 mm 4 mps 655 mmHg 27%
    13:00 +35°C° 0 mm 4 mps 655 mmHg 24%
    14:00 +35°C° 0 mm 4 mps 654 mmHg 22%
    15:00 +34°C° 0 mm 4 mps 654 mmHg 25%
    16:00 +33°C° 0 mm 4 mps 654 mmHg 28%
    17:00 +32°C° 0 mm 4 mps 653 mmHg 31%
    18:00 +29°C° 0 mm 4 mps 653 mmHg 40%
    19:00 +27°C° 0 mm 4 mps 654 mmHg 49%
    20:00 +23°C° 0 mm 4 mps 654 mmHg 58%
    21:00 +22°C° 0 mm 3 mps 654 mmHg 64%
    22:00 +22°C° 0 mm 3 mps 654 mmHg 70%
    23:00 +21°C° 0 mm 2 mps 655 mmHg 76%

    27 March, Wednesday

    Time Temperature Precipitation Wind Pressure Humidity
    00:00 +20°C° 0 mm 2 mps 654 mmHg 79%
    01:00 +20°C° 0 mm 2 mps 654 mmHg 81%
    02:00 +19°C° 0 mm 2 mps 654 mmHg 84%
    03:00 +19°C° 0 mm 2 mps 654 mmHg 86%
    04:00 +18°C° 0 mm 2 mps 654 mmHg 89%
    05:00 +18°C° 0 mm 3 mps 654 mmHg 92%
    06:00 +20°C° 0 mm 3 mps 655 mmHg 86%
    07:00 +21°C° 0 mm 3 mps 656 mmHg 79%
    08:00 +22°C° 0 mm 4 mps 656 mmHg 73%
    09:00 +26°C° 0 mm 4 mps 657 mmHg 62%
    10:00 +28°C° 0 mm 4 mps 657 mmHg 52%
    11:00 +30°C° 0 mm 4 mps 658 mmHg 42%
    12:00 +32°C° 0 mm 4 mps 657 mmHg 40%
    13:00 +33°C° 0 mm 4 mps 657 mmHg 38%
    14:00 +33°C° 0 mm 4 mps 656 mmHg 36%
    15:00 +32°C° 0.1 mm 4 mps 656 mmHg 41%
    16:00 +30°C° 0.1 mm 4 mps 656 mmHg 45%
    17:00 +29°C° 0.1 mm 4 mps 655 mmHg 50%
    18:00 +27°C° 0 mm 4 mps 655 mmHg 61%
    19:00 +25°C° 0 mm 3 mps 656 mmHg 71%
    20:00 +21°C° 0 mm 3 mps 656 mmHg 81%
    21:00 +21°C° 0 mm 3 mps 656 mmHg 85%
    22:00 +20°C° 0 mm 3 mps 656 mmHg 89%
    23:00 +19°C° 0 mm 2 mps 656 mmHg 94%
    Show more